Regional Weather Roundup
Issued by NWS

Home | Current Version | Previous Version | Graphics & Text | Print | Product List | Glossary On
Versions: 1 2 3 4 5 6 7 8 9 10 11 12 13 14 15 16 17 18 19 20 21 22 23 24 25 26 27 28 29 30 31 32 33 34 35 36 37 38 39 40 41 42 43 44 45 46 47 48 49 50
000
ASUS43 KMKX 240921
RWRWI

WISCONSIN REGIONAL WEATHER ROUNDUP
NATIONAL WEATHER SERVICE MILWAUKEE/SULLIVAN WI
400 AM CDT SAT JUN 24 2017

NOTE: "FAIR" INDICATES FEW OR NO CLOUDS BELOW 12,000 FEET WITH NO
SIGNIFICANT WEATHER AND/OR OBSTRUCTIONS TO VISIBILITY.

WIZ001-002-006>008-014>016-023>028-241000-
NORTHWEST WISCONSIN

CITY           SKY/WX    TMP DP  RH WIND       PRES   REMARKS
SUPERIOR ARPT  NOT AVBL
ASHLAND        CLOUDY    55  50  83 W10       29.85S
HAYWARD        CLOUDY    54  50  86 VRB5      29.89S
SIREN          PTCLDY    51  46  82 CALM      29.92S
CUMBERLAND     PTCLDY    52  45  76 NW9       29.92S
RICE LAKE      PTCLDY    54  47  78 W7        29.92S
CHETEK         PTCLDY    54  49  83 NW6       29.91S
LADYSMITH      CLOUDY    55  49  80 W7        29.90S
EAU CLAIRE     PTCLDY    55  52  89 W6        29.91R
MENOMONIE      PTCLDY    54  50  87 W7        29.93R
NEW RICHMOND   CLEAR     50  47  88 W6        29.94S
OSCEOLA        CLEAR     53  48  82 W6        29.96S
$$

WIZ003>005-009-010-017-018-241000-
NORTH CENTRAL WISCONSIN

CITY           SKY/WX    TMP DP  RH WIND       PRES   REMARKS
MANITOWISH WTR CLOUDY    55  54  97 NW7       29.83S
ARBOR VITAE    LGT RAIN  57  52  83 NW9       29.83R
WOODRUFF       LGT RAIN  57  52  83 NW9       29.83R
RHINELANDER    CLOUDY    55  53  93 W8        29.84R
EAGLE RIVER    CLOUDY    55  49  82 CALM      29.82R
LAND O LAKES   CLOUDY    56  51  81 NW8       29.83S
PHILLIPS       CLOUDY    54  51  91 W5        29.86R
TOMAHAWK       NOT AVBL
MEDFORD        CLOUDY    53  50  90 W9        29.87S
MERRILL        MOCLDY    55  54  94 W6        29.86R
$$

WIZ029-030-035-036-043>047-241000-
CENTRAL WISCONSIN

CITY           SKY/WX    TMP DP  RH WIND       PRES   REMARKS
WAUSAU         CLOUDY    56  53  90 W8        29.84R
MOSINEE        MOCLDY    55  54  94 W9        29.87R
MARSHFIELD     LGT RAIN  55  51  86 NW12      29.87S
STEVENS POINT  CLOUDY    56  54  91 W7        29.87R
WAUPACA        CLOUDY    61  55  82 W6        29.86R
WAUTOMA        PTCLDY    58  53  84 W9        29.87R
WISC RAPIDS    CLOUDY    58  53  84 NW10      29.89R
CAMP DOUGLAS   MOCLDY    56  52  84 W10       29.90R
$$

WIZ011>013-019>022-031-037>040-048>050-241000-
NORTHEAST WISCONSIN

CITY           SKY/WX    TMP DP  RH WIND       PRES   REMARKS
ANTIGO         CLOUDY    53  52  96 W8        29.84R
SHAWANO        CLOUDY    59  54  82 W6        29.82R
OCONTO         CLOUDY    55  53  91 W5        29.79R
STURGEON BAY     N/A     60  53  77 NW7         N/A
GREEN BAY      CLOUDY    60  55  83 W12       29.81R
MANITOWOC      MOCLDY    60  53  77 W7        29.82R
APPLETON       CLOUDY    59  50  72 W9        29.82R
CLINTONVILLE   CLOUDY    59  52  77 W10       29.83R
OSHKOSH        CLOUDY    60  53  77 W8        29.84R
$$

WIZ032>034-041-042-053>061-241000-
SOUTHWEST WISCONSIN

CITY           SKY/WX    TMP DP  RH WIND       PRES   REMARKS
LA CROSSE      PTCLDY    62  52  69 N3        29.93R
SPARTA         CLOUDY    57  53  85 W7        29.93R
VIROQUA        PTCLDY    56  54  91 NW7       29.94S
BOSCOBEL       CLEAR     59  53  80 SW5       29.93S
PRAIRIE DU CHI PTCLDY    59  51  74 NW6       29.95S
PLATTEVILLE    CLEAR     58  55  89 W6        29.94S
$$

WIZ056-057-062-063-064-067-068-241000-
SOUTH CENTRAL WISCONSIN

CITY           SKY/WX    TMP DP  RH WIND       PRES   REMARKS
REEDSBURG      CLEAR     57  55  90 W5        29.90S
BARABOO/DELLS  PTCLDY    57  52  82 W7        29.90R
LONE ROCK      PTCLDY    60  53  77 W9        29.91S
MINERAL POINT  CLEAR     59  55  88 W8        29.92S
MADISON        PTCLDY    59  54  83 W8        29.88S
MIDDLETON      PTCLDY    59  55  87 W8        29.90S
WATERTOWN      PTCLDY    59  54  83 W9        29.87R
MONROE         CLEAR     59  52  77 W12       29.92R
JANESVILLE     PTCLDY    59  55  88 W7        29.89S
$$

WIZ051-052-058>065-066-070>072-241000-
SOUTHEAST WISCONSIN

CITY           SKY/WX    TMP DP  RH WIND       PRES   REMARKS
MILWAUKEE      CLEAR     63  54  72 W6        29.86R
WAUKESHA       CLEAR     55  52  88 W13       29.88R
MILWAUKEE/TIMM PTCLDY    59  50  72 W7        29.86S
RACINE         CLEAR     61  54  77 W8        29.87R
KENOSHA        CLEAR     60  54  80 W9        29.86S
FOND DU LAC    CLOUDY    61  52  72 W12       29.85R
SHEBOYGAN      PTCLDY    59  55  87 W9        29.83R
WEST BEND      CLEAR     59  54  82 W9        29.85S
JUNEAU         PTCLDY    58  53  82 CALM      29.88R
$$

LSZ147-162-241000-
LAKE SUPERIOR

STATION/POSITION TIME  TEMP    WIND        PRES    WAVE
                       AIR SEA DIR/SP/G            HT/PER
                 (UTC) (F)     (DEG/KT/KT) (MB)    (FT/S)
W MID LAKE BUOY  0850   44 39  260/  8/ 10 1008.9R   1
DEVILS ISLAND    0900   53     250/ 14/ 17 1010.2R
SAXON HARBOR     0830   59     260/  5/ 11 1010.2R
$$

LMZ867-665-643>646-241000-
LAKE MICHIGAN

STATION/POSITION TIME  TEMP    WIND        PRES    WAVE
                       AIR SEA DIR/SP/G            HT/PER
                 (UTC) (F)     (DEG/KT/KT) (MB)    (FT/S)
CHAMBERS ISLAND  0840   59     270/  3/ 13 1007.8R
S GREEN BAY BUOY 0900   61     300/ 12/ 16 1008.5
N MID LAKE BUOY  0850   59 56  280/  8/  8 1007.9R   1
NORTHPORT PIER   0840   61     290/  6/ 11 1007.8R
KEWAUNEE LAKESHO 0854   59     280/  5/  7 1008.5R
SHEBOYGAN LAKESH 0900   61     270/ 12/ 14 1009.4R
PORT WASHINGTON  0830   63     280/  6/ 13 1011.2R
ATWATER BUOY     0809   62 60  270/ 12/ 14 1010.5R
MILWAUKEE LAKESH 0900   63     290/ 11/ 14   N/A
S MID LAKE BUOY  0850   63 61  310/ 14/ 17 1010.1R   2/ 4
KENOSHA   LAKESH 0900   62     290/  9/ 14 1010.8
$$

TC  - TEMPERATURE IN CELSIUS
VSB - VISIBILITY IN STATUTE MILES
WCI - WIND CHILL INDEX
HX  - HEAT INDEX




USA.gov is the U.S. government's official web portal to all federal, state and local government web resources and services.